Location: Marignac
(43.2152°N, 0.9668°E)
Time: 11:47:34
(UTC+00:00)

Daily predictions for brighter satellites

Satellite Brightness Start Highest point End
(mag) Time Altitude Azimuth Time Altitude Azimuth Time Altitude Azimuth
Cosmos 1934 Rocket 4.0 20:02:54 10° N 20:09:01 80° E 20:15:11 10° S
Genesis I 3.5 20:05:31 10° S 20:09:09 43° ESE 20:12:53 10° NE
ARIANE 5 R/B 4.5 20:07:25 10° ESE 20:10:17 17° ENE 20:13:11 10° NNE
Cosmos 2227 4.4 20:05:31 10° NNW 20:11:06 62° ENE 20:16:39 10° SE
Cosmos 2278 4.2 20:05:37 10° SW 20:11:16 67° WNW 20:16:58 10° NNE
CENTAUR R/B 2.5 20:07:19 10° SSW 20:13:04 78° ESE 20:19:58 10° NE
Cosmos 676 Rocket 4.3 20:09:50 10° NNW 20:15:08 58° ENE 20:20:22 10° SE
SJ-6B 4.1 20:11:48 10° S 20:15:42 42° W 20:19:35 10° NNW
Cosmos 1470 3.2 20:12:12 10° N 20:16:02 45° ENE 20:19:50 10° SSE
Cosmos 1954 Rocket 4.2 20:10:51 10° NNW 20:16:09 61° ENE 20:21:24 10° SSE
Ariane Rocket 3.1 20:12:27 10° SSE 20:17:33 82° WSW 20:22:40 10° NNW
SL-24 DEB 4.5 20:15:14 10° S 20:19:57 80° W 20:24:45 10° N
Cosmos 1980 Rocket 3.5 20:19:03 10° SW 20:24:27 45° WNW 20:29:50 10° NNE
Cosmos 1674 4.4 20:22:37 10° SE 20:25:02 17° E 20:27:26 10° NE
Cosmos 1315 Rocket 3.2 20:22:25 10° N 20:26:29 52° ENE 20:30:30 10° SSE
Okean 1 Rocket 3.1 20:26:14 10° N 20:30:35 68° E 20:34:57 10° SSE
Cosmos 1140 Rocket 4.3 20:26:55 10° NNW 20:32:00 50° WSW 20:37:01 10° S
Resurs 1-3 4.3 20:27:55 10° S 20:32:13 54° W 20:36:32 10° NNW
Cosmos 1455 Rocket 4.5 20:29:57 10° NNE 20:33:36 24° ENE 20:36:54 12° SE
Cosmos 1727 Rocket 4.3 20:27:38 10° SSE 20:33:41 50° E 20:39:42 10° NNE
Cosmos 1378 Rocket 3.9 20:35:07 10° SSW 20:39:25 70° W 20:43:48 10° N
Cosmos 1605 Rocket 4.1 20:33:24 10° N 20:39:51 88° E 20:46:13 10° S
Cosmos 220 Rocket 4.3 20:36:02 10° SSW 20:40:20 71° WNW 20:44:37 10° NNE
OBJECT-B 3.6 20:39:13 10° SW 20:41:03 14° W 20:42:53 10° WNW
BREEZE-M DEB (TANK) 2.2 20:39:20 10° SW 20:41:36 52° SE 20:45:14 10° ENE
Meteor 2-10 4.3 20:37:02 10° NNW 20:42:03 68° W 20:47:09 10° S
Cosmos 1726 2.0 20:39:00 10° N 20:42:39 87° W 20:46:17 10° S
Cosmos 1844 Rocket 3.9 20:37:57 10° N 20:42:56 30° NE 20:47:39 11° ESE
Cosmos 2285 Rocket 4.1 20:36:48 10° SSW 20:43:14 88° ESE 20:49:43 10° NNE
Cosmos 1758 3.4 20:40:55 10° N 20:44:53 62° E 20:48:22 13° SSE
Okean 2 3.7 20:40:58 10° SSW 20:45:02 69° W 20:49:07 10° N
Meteor 2-20 4.4 20:41:51 10° S 20:47:56 81° E 20:54:03 10° N
Cosmos 292 Rocket 3.8 20:44:07 10° SSW 20:48:57 85° ESE 20:53:48 10° NNE
Cosmos 1908 4.4 20:48:48 10° NNE 20:52:10 27° ENE 20:54:25 16° ESE
Lacrosse 5 rocket 2.2 20:49:53 10° S 20:52:47 22° SE 20:55:36 10° ENE
Cosmos 2263 Rocket 2.9 20:50:31 10° NW 20:56:02 51° WSW 21:01:30 10° S
SPOT 5 3.7 20:53:08 15° SE 20:57:00 39° ENE 21:01:36 10° N
Cosmos 1707 3.0 20:54:53 10° SSW 20:58:44 71° W 21:02:39 10° N
Cosmos 1452 Rocket 3.5 20:55:21 10° SSW 21:00:37 79° ESE 21:05:55 10° NNE
In-Cosmos 22 4.0 21:01:11 10° S 21:06:28 83° E 21:11:46 10° NNE
Resurs 01 Rocket 2.8 21:04:28 10° SSW 21:08:35 39° W 21:12:44 10° NNW
Terra 2.8 21:06:08 17° ESE 21:09:07 34° ENE 21:13:25 10° N
SPOT 1/Viking Rocket 3.6 21:05:01 13° S 21:09:37 78° WSW 21:14:47 10° NNW
Cosmos 1459 Rocket 4.2 21:04:17 10° N 21:10:14 55° ENE 21:14:34 19° SSE
Cosmos 2333 Rocket 3.2 21:09:00 18° SE 21:11:49 27° ESE 21:16:31 10° NE
Cosmos 1850 Rocket 4.1 21:06:56 10° NNW 21:12:16 71° ENE 21:15:54 20° SSE
Cosmos 1025 Rocket 3.7 21:10:01 20° SSE 21:12:31 39° E 21:16:35 10° NNE
Lacrosse 5 2.1 21:07:43 10° NW 21:12:44 63° SW 21:16:06 21° SSE
Cosmos 1953 2.6 21:08:49 10° N 21:12:50 55° E 21:15:11 23° SSE
CARTOSAT-1 3.5 21:10:57 19° SSE 21:13:57 75° ENE 21:18:17 10° N
USA 245 4.0 21:11:38 16° S 21:15:21 77° WSW 21:20:56 10° NNW
NOSS 3-2 (C) 4.4 21:11:24 10° WSW 21:16:52 50° NW 21:23:11 10° NNE
Geosat 4.0 21:15:06 20° SE 21:18:35 80° ENE 21:23:38 10° NNW
SL-14 R/B 4.5 21:17:36 22° ESE 21:18:57 27° E 21:22:23 10° NNE
FALCON 9 DEB 3.0 21:17:06 10° SW 21:20:31 81° SE 21:23:56 10° NE
Spot 2 Rocket 3.5 21:17:52 18° SSE 21:21:40 86° WSW 21:26:46 10° NNW
Cosmos 1975 Rocket 3.0 21:18:21 12° S 21:22:20 85° W 21:26:45 10° N
ATLAS 3B R/B 3.1 21:18:04 13° S 21:23:24 38° ESE 21:29:28 10° NE
Cosmos 1331 Rocket 4.0 21:22:13 14° S 21:26:38 60° ESE 21:31:49 10° NNE
Cosmos 1844 4.1 21:21:26 10° NNW 21:26:53 52° ENE 21:30:18 22° SE
Cosmos 2219 Rocket 3.1 21:24:39 22° SE 21:27:00 30° ESE 21:31:52 10° NE
ERS-1 Rocket 3.0 21:24:38 22° SSE 21:27:53 74° ENE 21:32:56 10° N
Cosmos 1626 2.2 21:27:13 29° SSE 21:28:49 54° E 21:32:26 10° NNE
Cosmos 1461 3.2 21:24:46 10° NNW 21:28:57 56° NE 21:30:58 27° ESE
Meteor 2-11 Rocket 4.5 21:23:19 10° N 21:29:26 69° E 21:33:25 22° SSE
Aureole 1 Rocket 4.1 21:29:37 10° NNW 21:35:30 76° ENE 21:40:16 23° SSE
Cosmos 2123 Rocket 4.2 21:34:02 22° SSE 21:38:08 58° E 21:44:20 10° NNE
SL-8 R/B 4.0 21:33:30 10° WNW 21:38:17 64° NNE 21:41:58 17° E
BREEZE-M DEB (TANK) 1.7 21:35:44 10° NW 21:38:50 74° NNE 21:39:08 59° E
BREEZE-M DEB (TANK) 1.4 21:36:53 10° WSW 21:39:15 81° SSE 21:43:39 10° ENE
KORONAS-FOTON 4.3 21:36:30 15° SSW 21:39:32 56° W 21:43:16 10° N
Cosmos 2237 Rocket 4.2 21:42:20 11° E 21:42:26 11° E 21:43:37 10° E
ATLAS CENTAUR R/B 2.7 21:40:00 10° NNW 21:43:58 34° NE 21:46:25 20° E
Cosmos 1741 Rocket 4.3 21:39:09 10° NNW 21:44:21 64° WSW 21:47:27 24° S
Cosmos 1302 Rocket 4.4 21:42:30 28° SSE 21:44:46 43° ESE 21:49:44 10° NNE
ARIANE 5 R/B 3.2 21:43:35 21° S 21:46:19 52° W 21:50:42 10° NNW
USA 215 3.4 21:40:06 10° ENE 21:46:26 50° SE 21:52:43 10° SSW
SL-16 R/B 3.8 21:42:03 10° WSW 21:47:14 36° NW 21:52:28 10° N
Celestis-02/Orion 38 4.5 21:45:21 29° SSE 21:48:04 90° WSW 21:53:15 10° NNW
Cosmos 2360 Rocket 2.4 21:42:53 10° SSW 21:48:32 73° WNW 21:54:12 10° NNE
Cosmos 2322 Rocket 3.4 21:44:34 10° SW 21:49:58 43° WNW 21:55:25 10° NNE
Cosmos 2100 Rocket 4.3 21:43:55 10° NNW 21:50:15 69° W 21:54:46 20° S
Centaur D AC-29 3.7 21:28:28 10° W 21:56:09 30° SSW 21:59:44 23° S
Cosmos 1674 4.3 21:57:09 11° SW 22:00:15 30° WNW 22:03:35 10° NNW
Cosmos 389 Rocket 4.3 22:00:46 10° NNE 22:03:16 18° ENE 22:03:30 18° ENE
COSMOS 2428 3.0 22:01:02 31° SSE 22:03:20 48° ESE 22:08:50 10° NE
SL-08 R/B 4.5 21:59:15 10° N 22:05:40 84° E 22:08:59 30° S
Cosmos 2322 3.6 22:02:41 23° SSW 22:06:16 74° ESE 22:11:56 10° NNE
CZ-4B DEB 4.3 22:06:05 56° SW 22:06:30 65° W 22:09:40 10° NNW
Cosmos 1544 Rocket 4.0 22:02:10 10° NNW 22:06:35 59° W 22:08:31 31° SSW
H-2A R/B 3.4 22:03:38 10° NNE 22:07:44 82° WNW 22:09:25 35° SSW
Cosmos 1300 2.6 22:06:04 10° N 22:09:53 74° E 22:10:36 55° SSE
Cosmos 2016 Rocket 4.0 22:06:39 10° NNW 22:12:43 74° W 22:16:04 28° S
Cosmos 2278 Rocket 3.6 22:10:20 10° N 22:15:14 29° NE 22:18:27 17° E
Cosmos 1346 Rocket 3.4 22:19:17 39° E 22:19:27 40° E 22:23:13 10° NNE
USA 267 4.2 22:13:23 10° E 22:19:30 44° NNE 22:25:37 10° NW
Cosmos 1725 Rocket 4.1 22:18:00 10° NNW 22:24:09 70° W 22:27:17 30° S
Cosmos 1844 Rocket 3.4 22:21:36 10° NW 22:26:58 44° WSW 22:29:18 29° SSW
Meteor 2-5 Rocket 3.7 22:24:44 31° SSW 22:27:31 81° W 22:33:08 10° N
Cosmos 1340 3.7 22:26:36 28° SW 22:28:02 42° WNW 22:31:38 10° N
Lacrosse 5 rocket 2.2 22:28:09 10° WSW 22:31:39 42° NW 22:35:05 10° NE
Cosmos 968 Rocket 3.5 22:26:49 10° NNW 22:31:56 69° ENE 22:33:31 43° SE
Cosmos 1992 Rocket 4.3 22:32:39 43° SE 22:33:39 49° ESE 22:38:41 10° NNE
Cosmos 405 3.8 22:32:19 10° NNW 22:35:34 39° W 22:35:50 38° WSW
Cosmos 1536 Rocket 4.4 22:35:24 28° SW 22:37:24 46° WNW 22:41:43 10° N
GEOS 3 Rocket 3.8 22:36:02 36° SE 22:38:16 74° NE 22:43:37 10° NNW
Terra 3.4 22:45:01 21° SW 22:46:54 27° W 22:50:56 10° NW
DNEPR-1 R/B 3.5 22:45:56 10° NW 22:50:08 63° WSW 22:50:34 59° SSW
Cosmos 1980 4.0 22:50:46 42° SE 22:51:43 46° ESE 22:57:08 10° NE
FALCON 9 DEB 4.2 22:56:15 35° NE 22:56:15 35° NE 22:58:16 10° NE
Cosmos 2333 Rocket 3.1 22:50:55 13° SW 22:55:47 48° WNW 23:01:21 10° NNE
Cosmos 2228 3.1 22:56:25 10° NNW 23:00:48 69° W 23:01:23 60° SW
BREEZE-M DEB (TANK) 3.0 22:53:22 10° SW 23:04:06 79° SSE 23:07:22 10° ENE
Okean 1-7 Rocket 4.2 23:06:13 41° E 23:06:22 41° E 23:10:34 10° NNE
Cosmos 2219 Rocket 3.2 23:06:18 15° SW 23:10:45 42° WNW 23:16:09 10° NNE
ATLAS 3B R/B 3.5 23:07:39 10° WSW 23:13:56 47° NW 23:20:28 10° NNE
Meteor 2-10 Rocket 4.0 23:12:57 10° NNW 23:17:49 47° W 23:18:55 40° SW
Cosmos 1503 Rocket 4.0 23:12:39 10° NNW 23:18:03 77° ENE 23:19:20 53° SE
FALCON 9 DEB 4.3 23:19:51 37° NNW 23:19:54 37° NNW 23:22:51 10° NE
SL-16 R/B 3.4 23:20:20 26° ESE 23:20:42 26° ESE 23:25:18 10° NE
SL-8 R/B 4.4 23:16:13 10° WNW 23:19:54 37° WSW 23:19:54 37° WSW
ATLAS CENTAUR R/B 2.7 23:18:55 10° NW 23:22:33 30° WSW 23:22:33 30° WSW
Iridium 2 4.2 23:22:59 49° W 23:22:59 49° W 23:26:37 10° N
Cosmos 2058 Rocket 2.9 23:20:47 10° N 23:25:16 83° E 23:25:34 76° SE
Cosmos 2237 Rocket 2.1 23:24:07 53° S 23:25:32 81° ESE 23:31:11 10° NNE
ATLAS CENTAUR R/B 3.0 23:25:37 50° S 23:26:51 60° SE 23:38:05 10° NE
USA 215 3.9 23:23:07 10° NE 23:29:29 56° NNW 23:35:49 10° WSW
Cosmos 1867 3.6 23:26:34 10° NW 23:32:01 66° WSW 23:32:53 56° SSW
Spot 4 4.3 23:31:30 43° WSW 23:32:08 46° W 23:36:45 10° NNW
Cosmos 1726 Rocket 4.1 23:31:01 10° NNW 23:35:17 45° W 23:35:38 44° WSW
Thor Agena Rocket 3.9 23:30:39 10° NNE 23:35:45 50° E 23:36:27 47° SE
MINOTAUR IV R/B 4.4 23:36:27 76° SE 23:36:37 78° ESE 23:41:12 10° NNE
GP-B 4.0 23:32:38 10° NNE 23:36:44 35° E 23:37:02 35° E
Cosmos 1455 2.8 23:34:06 10° NNW 23:37:30 47° WNW 23:37:30 47° WNW
Cosmos 389 Rocket 4.3 23:35:04 10° NW 23:37:17 22° WNW 23:37:17 22° WNW
Meteor 1-21 Rocket 4.1 23:39:35 53° SSW 23:40:58 84° W 23:46:42 10° N
Meteor 1-4 Rocket 3.4 23:42:01 10° N 23:44:51 42° NE 23:44:51 42° NE
COSMOS 2428 4.4 23:42:59 10° WSW 23:47:50 29° NW 23:52:47 10° N
NOSS 0 Rocket 4.4 23:45:23 28° SW 23:48:35 56° WNW 23:54:44 10° NNE
ALOS 2 3.0 23:49:12 50° WSW 23:49:18 50° W 23:53:35 10° NNW
SJ 16-02 2.7 23:51:53 10° N 23:55:49 32° ENE 23:57:01 27° E
